{"data":{"norad_id":64962,"epoch":"2026-09-21T22:18:57.635136Z","epoch_age_seconds":44634,"freshness":"FRESH","line1":"1 64962U 25160A   26264.92983374  .00037970  00000+0  70652-3 0  9994","line2":"2 64962  97.3554 344.1356 0006250 204.5657 155.5297 15.48758422 64358","mean_motion":15.48758422,"eccentricity":0.000625,"inclination_deg":97.3554,"raan_deg":344.1356,"arg_perigee_deg":204.5657,"mean_anomaly_deg":155.5297,"bstar":0.00070652,"rev_number":6435,"period_min":92.977702625852,"perigee_km":416.10797298676,"apogee_km":424.60609052645,"semimajor_km":6798.4940317566,"source":"CELESTRAK","updated_at":"2026-09-22T09:00:30.062183Z"}}